Regional Weather Roundup
Issued by NWS

Home | Current Version | Previous Version | Text Only | Print | Product List | Glossary On
Versions: 1 2 3 4 5 6 7 8 9 10 11 12 13 14 15 16 17 18 19 20 21 22 23 24 25 26 27 28
000
ASUS45 KBOI 191810
RWRID

IDAHO REGIONAL WEATHER ROUNDUP
NATIONAL WEATHER SERVICE BOISE ID
1100 AM MST SUN FEB 19 2017

NOTE: "FAIR" INDICATES FEW OR NO CLOUDS BELOW 12000 FEET
WITH NO SIGNIFICANT WEATHER AND/OR OBSTRUCTIONS TO VISIBILITY

IDZ012-014-191900-
SOUTHWEST IDAHO


CITY           SKY/WX    TMP DP  RH WIND       PRES   REMARKS
BOISE          CLOUDY    46  37  71 SE10      29.60S
CALDWELL       LGT RAIN  42  38  85 SE13G22   29.62R
MOUNTAIN HOME  CLOUDY    45  45 100 SE12      29.63S
$$

IDZ016-017-191900-
SOUTHCENTRAL IDAHO


CITY           SKY/WX    TMP DP  RH WIND       PRES   REMARKS
BURLEY         PTSUNNY   47  37  68 SW5       29.65R
JEROME           N/A    N/A N/A N/A MISG      29.65S
TWIN FALLS     CLOUDY    45  35  68 S8        29.65R
$$

IDZ019>023-191900-
SOUTHEAST IDAHO


CITY           SKY/WX    TMP DP  RH WIND       PRES   REMARKS
IDAHO FALLS    CLOUDY    35  35 100 S15       29.66R WCI  25
POCATELLO      PTSUNNY   43  35  73 SW10      29.67S
REXBURG        CLOUDY    36  34  92 S13G22    29.65R WCI  27
$$

IDZ006-010-011-018-031-032-191900-
CENTRAL IDAHO MOUNTAINS


CITY           SKY/WX    TMP DP  RH WIND       PRES   REMARKS
MCCALL         CLOUDY    36  27  69 SE9       29.56R WCI  29
HAILEY         CLOUDY    34  34 100 SE9       29.65R WCI  26
STANLEY          N/A     30  27  88 CALM      29.60R
SALMON         MOSUNNY   36  34  93 CALM      29.56R
CHALLIS        CLOUDY    39  32  76 N5        29.56R
$$

IDZ002-004-006-007-026-191900-
NORTHERN IDAHO


CITY           SKY/WX    TMP DP  RH WIND       PRES   REMARKS
LEWISTON       PTSUNNY   42  38  85 CALM      29.54S
LOWELL           N/A     39  35  86 CALM      29.61S
COEUR D`ALENE  CLOUDY    36  34  92 SE3       29.54R
MULLAN PASS    LGT SNOW  29  27  92 VRB6      29.46R FOG     WCI  23
$$




USA.gov is the U.S. government's official web portal to all federal, state and local government web resources and services.